Flag for USA

Past Weather in Cambridge, Massachusetts, USA — Yesterday and Last 2 Weeks

Now
64 °F

Passing clouds.


Feels Like: 64 °F
Forecast: 79 / 57 °F
Wind: 7 mph from West

Location: Logan International Airport
Current Time: Sep 25, 2020 at 4:00:24 am
Latest Report: Sep 25, 2020 at 2:54 am
Visibility: 10 mi
Pressure30.00 "Hg
Humidity: 73%
Dew Point: 55 °F
Location of CambridgeLocation

Past Weather in Cambridge — Graph

°F

Cambridge Temperature Yesterday

Maximum temperature yesterday: 79 °F (at 1:54 pm)
Minimum temperature yesterday: 61 °F (at 5:54 am)
Average temperature yesterday: 69 °F

High & Low Weather Summary for the Past Weeks

 TemperatureHumidityPressure
High82 °F (Sep 10, 2:54 pm)97% (Sep 10, 11:54 pm)30.60 "Hg (Sep 10, 11:54 pm)
Low44 °F (Sep 20, 5:54 am)24% (Sep 22, 4:54 pm)29.70 "Hg (Sep 23, 3:54 pm)
Average62 °F61%30.15 "Hg
* Reported Sep 10 2:54 am — Sep 25 2:54 am, Cambridge. Weather by CustomWeather, © 2020

Note: Actual official high and low records may vary slightly from our data, if they occured in-between our weather recording intervals... More about our weather records

Cambridge Weather History for the Previous 24 Hours

Scroll right to see more
 ConditionsComfort  
Time TempWeatherWind HumidityBarometerVisibility
2:54 am
Fri, Sep 25
64 °FPassing clouds.7 mph73%30.00 "Hg10 mi
1:54 am64 °FPassing clouds.5 mph73%30.00 "Hg10 mi
12:54 am65 °FPassing clouds.9 mph70%29.99 "Hg10 mi
11:54 pm
Thu, Sep 24
66 °FPassing clouds.12 mph68%29.98 "Hg10 mi
10:54 pm66 °FPassing clouds.9 mph65%29.98 "Hg10 mi
9:54 pm68 °FPartly cloudy.7 mph59%29.97 "Hg10 mi
8:54 pm68 °FPassing clouds.6 mph57%29.97 "Hg10 mi
7:54 pm70 °FMostly cloudy.7 mph57%29.96 "Hg10 mi
6:54 pm73 °FMostly cloudy.5 mph48%29.95 "Hg10 mi
5:54 pm75 °FMostly cloudy.9 mph48%29.93 "Hg8 mi
4:54 pm76 °FMostly cloudy.7 mph45%29.92 "Hg10 mi
3:54 pm77 °FMostly cloudy.10 mph40%29.92 "Hg10 mi
2:54 pm78 °FHigh level clouds.13 mph37%29.92 "Hg10 mi
1:54 pm79 °FHigh level clouds.10 mph35%29.93 "Hg10 mi
12:54 pm78 °FHigh level clouds.6 mph37%29.94 "Hg10 mi
11:54 am77 °FPartly sunny.7 mph40%29.94 "Hg10 mi
10:54 am74 °FPartly sunny.7 mph46%29.96 "Hg10 mi
9:54 am71 °FPartly sunny.7 mph55%29.96 "Hg10 mi
8:54 am66 °FPartly sunny.7 mph63%29.94 "Hg10 mi
7:54 am63 °FScattered clouds.8 mph70%29.92 "Hg10 mi
6:54 am61 °FPartly sunny.6 mph72%29.91 "Hg10 mi
5:54 am61 °FPassing clouds.8 mph72%29.89 "Hg10 mi
4:54 am62 °FPassing clouds.8 mph70%29.88 "Hg10 mi
Weather by CustomWeather, © 2020

See weather overview